Time,TemperatureF,DewpointF,PressureIn,WindDirection,WindDirectionDegrees,WindSpeedMPH,WindSpeedGustMPH,Humidity,HourlyPrecipIn,Conditions,Clouds,dailyrainin,SolarRadiationWatts/m^2,SoftwareType,DateUTC
2013-09-07 00:04:00,62.0,62.0,30.50,West,261,1.0,3.0,100,0.00,,,0.00,0.000000,,2013-09-07 04:04:00,
2013-09-07 00:43:00,60.0,60.0,30.50,SE,134,1.0,2.0,100,0.00,,,0.00,0.000000,,2013-09-07 04:43:00,
2013-09-07 00:54:00,60.0,60.0,30.50,SE,134,1.0,2.0,100,0.00,,,0.00,0.000000,,2013-09-07 04:54:00,
2013-09-07 01:03:00,60.0,60.0,30.50,SE,134,1.0,2.0,100,0.00,,,0.00,0.000000,,2013-09-07 05:03:00,
2013-09-07 01:42:00,58.0,58.0,30.50,SE,146,1.0,2.0,100,0.00,,,0.00,0.000000,,2013-09-07 05:42:00,
2013-09-07 01:52:00,58.0,58.0,30.50,SE,146,1.0,2.0,100,0.00,,,0.00,0.000000,,2013-09-07 05:52:00,
2013-09-07 02:02:00,58.0,58.0,30.50,SE,146,1.0,2.0,100,0.00,,,0.00,0.000000,,2013-09-07 06:02:00,
2013-09-07 02:43:00,58.0,58.0,30.50,NNE,25,1.0,2.0,100,0.00,,,0.00,0.000000,,2013-09-07 06:43:00,
2013-09-07 02:52:00,58.0,58.0,30.50,NNE,25,1.0,2.0,100,0.00,,,0.00,0.000000,,2013-09-07 06:52:00,
2013-09-07 03:02:00,58.0,58.0,30.50,NNE,25,1.0,2.0,100,0.00,,,0.00,0.000000,,2013-09-07 07:02:00,
2013-09-07 03:43:00,57.0,57.0,30.49,East,79,0.0,2.0,100,0.00,,,0.00,0.000000,,2013-09-07 07:43:00,
2013-09-07 03:52:00,57.0,57.0,30.49,East,79,0.0,2.0,100,0.00,,,0.00,0.000000,,2013-09-07 07:52:00,
2013-09-07 04:02:00,57.0,57.0,30.49,East,79,0.0,2.0,100,0.00,,,0.00,0.000000,,2013-09-07 08:02:00,
2013-09-07 04:43:00,58.0,58.0,30.49,North,353,1.0,2.0,100,0.00,,,0.00,0.000000,,2013-09-07 08:43:00,
2013-09-07 04:53:00,58.0,58.0,30.49,North,353,1.0,2.0,100,0.00,,,0.00,0.000000,,2013-09-07 08:53:00,
2013-09-07 05:02:00,58.0,58.0,30.49,North,353,1.0,2.0,100,0.00,,,0.00,0.000000,,2013-09-07 09:02:00,
2013-09-07 05:43:00,55.0,55.0,30.48,ESE,113,1.0,2.0,100,0.00,,,0.00,0.000000,,2013-09-07 09:43:00,
2013-09-07 05:52:00,55.0,55.0,30.48,ESE,113,1.0,2.0,100,0.00,,,0.00,0.000000,,2013-09-07 09:52:00,
2013-09-07 06:02:00,55.0,55.0,30.48,ESE,113,1.0,2.0,100,0.00,,,0.00,0.000000,,2013-09-07 10:02:00,
2013-09-07 06:41:00,57.0,57.0,30.49,NW,313,1.0,2.0,100,0.00,,,0.00,0.000000,,2013-09-07 10:41:00,
2013-09-07 06:52:00,57.0,57.0,30.49,NW,313,1.0,2.0,100,0.00,,,0.00,0.000000,,2013-09-07 10:52:00,
2013-09-07 07:03:00,57.0,57.0,30.49,NW,313,1.0,2.0,100,0.00,,,0.00,0.000000,,2013-09-07 11:03:00,
2013-09-07 07:43:00,59.0,59.0,30.50,NNW,338,1.0,2.0,100,0.00,,,0.00,0.000000,,2013-09-07 11:43:00,
2013-09-07 07:53:00,59.0,59.0,30.50,NNW,338,1.0,2.0,100,0.00,,,0.00,0.000000,,2013-09-07 11:53:00,
2013-09-07 08:02:00,59.0,59.0,30.50,NNW,338,1.0,2.0,100,0.00,,,0.00,0.000000,,2013-09-07 12:02:00,
2013-09-07 08:42:00,59.0,59.0,30.51,SE,137,2.0,3.0,100,0.00,,,0.00,20.000000,,2013-09-07 12:42:00,
2013-09-07 08:52:00,59.0,59.0,30.51,SE,137,2.0,3.0,100,0.00,,,0.00,20.000000,,2013-09-07 12:52:00,
2013-09-07 09:02:00,59.0,59.0,30.51,SE,137,2.0,3.0,100,0.00,,,0.00,20.000000,,2013-09-07 13:02:00,
2013-09-07 09:42:00,59.0,59.0,30.51,WSW,251,2.0,5.0,100,0.00,,,0.00,93.000000,,2013-09-07 13:42:00,
2013-09-07 09:52:00,59.0,59.0,30.51,WSW,251,2.0,5.0,100,0.00,,,0.00,93.000000,,2013-09-07 13:52:00,
2013-09-07 10:02:00,59.0,59.0,30.51,WSW,251,2.0,5.0,100,0.00,,,0.00,93.000000,,2013-09-07 14:02:00,
2013-09-07 10:43:00,62.0,62.0,30.52,SSW,201,1.0,5.0,100,0.00,,,0.00,141.000000,,2013-09-07 14:43:00,
2013-09-07 10:52:00,62.0,62.0,30.52,SSW,201,1.0,5.0,100,0.00,,,0.00,141.000000,,2013-09-07 14:52:00,
2013-09-07 11:02:00,62.0,62.0,30.52,SSW,201,1.0,5.0,100,0.00,,,0.00,141.000000,,2013-09-07 15:02:00,
2013-09-07 11:44:00,65.0,65.0,30.52,WNW,290,1.0,5.0,99,0.00,,,0.00,238.000000,,2013-09-07 15:44:00,
2013-09-07 11:54:00,65.0,65.0,30.52,WNW,290,1.0,5.0,99,0.00,,,0.00,238.000000,,2013-09-07 15:54:00,
2013-09-07 12:04:00,65.0,65.0,30.52,WNW,290,1.0,5.0,99,0.00,,,0.00,238.000000,,2013-09-07 16:04:00,
2013-09-07 12:43:00,74.0,66.0,30.49,WSW,247,2.0,8.0,75,0.00,,,0.00,645.000000,,2013-09-07 16:43:00,
2013-09-07 12:53:00,74.0,66.0,30.49,WSW,247,2.0,8.0,75,0.00,,,0.00,645.000000,,2013-09-07 16:53:00,
2013-09-07 13:04:00,74.0,66.0,30.49,WSW,247,2.0,8.0,75,0.00,,,0.00,645.000000,,2013-09-07 17:04:00,
2013-09-07 13:43:00,81.0,68.0,30.46,West,275,2.0,9.0,64,0.00,,,0.00,971.000000,,2013-09-07 17:43:00,
2013-09-07 13:52:00,81.0,68.0,30.46,West,275,2.0,9.0,64,0.00,,,0.00,971.000000,,2013-09-07 17:52:00,
2013-09-07 14:01:00,81.0,68.0,30.46,West,275,2.0,9.0,64,0.00,,,0.00,971.000000,,2013-09-07 18:01:00,
2013-09-07 14:43:00,83.0,64.0,30.44,WNW,288,5.0,13.0,53,0.00,,,0.00,1018.000000,,2013-09-07 18:43:00,
2013-09-07 14:52:00,83.0,64.0,30.44,WNW,288,5.0,13.0,53,0.00,,,0.00,1018.000000,,2013-09-07 18:52:00,
2013-09-07 15:02:00,83.0,64.0,30.44,WNW,288,5.0,13.0,53,0.00,,,0.00,1018.000000,,2013-09-07 19:02:00,
2013-09-07 15:42:00,85.0,62.0,30.42,SSE,159,4.0,13.0,47,0.00,,,0.00,999.000000,,2013-09-07 19:42:00,
2013-09-07 15:53:00,85.0,62.0,30.42,SSE,159,4.0,13.0,47,0.00,,,0.00,999.000000,,2013-09-07 19:53:00,
2013-09-07 16:02:00,85.0,62.0,30.42,SSE,159,4.0,13.0,47,0.00,,,0.00,999.000000,,2013-09-07 20:02:00,
2013-09-07 16:42:00,84.0,62.0,30.41,NNW,337,2.0,16.0,48,0.00,,,-99.99,884.000000,,2013-09-07 20:42:00,
2013-09-07 16:53:00,84.0,62.0,30.41,NNW,337,2.0,16.0,48,0.00,,,-99.99,884.000000,,2013-09-07 20:53:00,
2013-09-07 17:02:00,84.0,62.0,30.41,NNW,337,2.0,16.0,48,0.00,,,-99.99,884.000000,,2013-09-07 21:02:00,
2013-09-07 17:44:00,85.0,63.0,30.39,ENE,61,3.0,15.0,48,0.00,,,0.00,731.000000,,2013-09-07 21:44:00,
2013-09-07 17:54:00,85.0,63.0,30.39,ENE,61,3.0,15.0,48,0.00,,,0.00,731.000000,,2013-09-07 21:54:00,
2013-09-07 18:04:00,85.0,63.0,30.39,ENE,61,3.0,15.0,48,0.00,,,0.00,731.000000,,2013-09-07 22:04:00,
2013-09-07 18:43:00,82.0,64.0,30.39,WNW,292,3.0,12.0,55,0.00,,,0.00,494.000000,,2013-09-07 22:43:00,
2013-09-07 18:53:00,82.0,64.0,30.39,WNW,292,3.0,12.0,55,0.00,,,0.00,494.000000,,2013-09-07 22:53:00,
2013-09-07 19:03:00,82.0,64.0,30.39,WNW,292,3.0,12.0,55,0.00,,,0.00,494.000000,,2013-09-07 23:03:00,
2013-09-07 19:42:00,77.0,65.0,30.39,NNW,332,1.0,9.0,66,0.00,,,0.00,243.000000,,2013-09-07 23:42:00,
2013-09-07 19:53:00,77.0,65.0,30.39,NNW,332,1.0,9.0,66,0.00,,,0.00,243.000000,,2013-09-07 23:53:00,
2013-09-07 20:02:00,77.0,65.0,30.39,NNW,332,1.0,9.0,66,0.00,,,0.00,243.000000,,2013-09-08 00:02:00,
2013-09-07 20:43:00,69.0,65.0,30.40,East,92,1.0,2.0,87,0.00,,,0.00,42.000000,,2013-09-08 00:43:00,
2013-09-07 20:52:00,69.0,65.0,30.40,East,92,1.0,2.0,87,0.00,,,0.00,42.000000,,2013-09-08 00:52:00,
2013-09-07 21:01:00,69.0,65.0,30.40,East,92,1.0,2.0,87,0.00,,,0.00,42.000000,,2013-09-08 01:01:00,
2013-09-07 21:42:00,64.0,63.0,30.41,NW,324,1.0,3.0,96,0.00,,,0.00,0.000000,,2013-09-08 01:42:00,
2013-09-07 21:52:00,64.0,63.0,30.41,NW,324,1.0,3.0,96,0.00,,,0.00,0.000000,,2013-09-08 01:52:00,
2013-09-07 22:02:00,64.0,63.0,30.41,NW,324,1.0,3.0,96,0.00,,,0.00,0.000000,,2013-09-08 02:02:00,
2013-09-07 22:43:00,64.0,64.0,30.41,NE,35,1.0,2.0,100,0.00,,,0.00,0.000000,,2013-09-08 02:43:00,
2013-09-07 22:52:00,64.0,64.0,30.41,NE,35,1.0,2.0,100,0.00,,,0.00,0.000000,,2013-09-08 02:52:00,
2013-09-07 23:03:00,64.0,64.0,30.41,NE,35,1.0,2.0,100,0.00,,,0.00,0.000000,,2013-09-08 03:03:00,
2013-09-07 23:44:00,62.0,62.0,30.40,NNE,13,2.0,3.0,100,0.00,,,0.00,0.000000,,2013-09-08 03:44:00,
2013-09-07 23:54:00,62.0,62.0,30.40,NNE,13,2.0,3.0,100,0.00,,,0.00,0.000000,,2013-09-08 03:54:00,